CAPE
1 0 0 0 0 0 nan 1 2 2 0 nan nan nan nan nan nan nan nan nan nan 8 47 49 49 40 34 31 20 20 16 11 8 8 6 3 1 1 0 0 0 4 2 1 1 0 nan nan nan nan nan nan nan nan nan nan nan nan nan nan nan nan nan nan nan nan nan nan 4 4 73 122 156 156 159 179 222 222 241 292 292 286 195 124 124 92
4 3 1 0 0 0 nan 0 2 2 3 2 0 0 nan nan nan nan nan nan nan 20 50 45 45 37 32 30 24 24 16 12 9 9 6 3 1 1 0 0 0 1 8 0 0 nan nan nan nan nan nan nan nan nan nan nan nan nan nan nan nan nan nan nan nan nan nan nan nan nan 22 88 165 165 205 255 240 240 218 210 210 173 124 87 87 91
6 3 1 0 0 0 nan 0 2 2 7 4 2 2 1 1 nan nan nan 15 15 51 36 32 32 37 33 30 29 29 17 11 9 9 6 4 1 1 0 0 0 0 9 nan nan nan nan nan nan nan nan nan nan nan nan nan nan nan nan nan nan nan nan nan nan nan nan nan nan nan nan 21 101 101 136 167 154 154 171 126 126 72 50 61 61 90
6 1 0 0 0 1 0 1 7 7 10 7 7 7 5 3 1 1 3 24 24 41 13 19 19 29 32 29 27 27 19 13 9 9 6 4 1 1 0 0 0 0 9 1 1 nan nan nan nan nan nan nan nan nan nan nan nan nan nan nan nan nan nan nan nan nan nan nan nan nan nan nan 10 10 28 28 32 32 39 51 51 19 13 41 41 69
5 1 0 2 2 3 3 8 19 19 26 27 16 16 11 7 3 3 2 3 3 9 7 13 13 26 32 27 21 21 19 13 10 10 8 5 3 3 0 0 0 0 8 5 5 nan nan nan nan nan nan nan nan nan nan nan nan nan nan nan nan nan nan nan nan nan nan nan nan nan nan nan nan nan nan nan nan nan 0 34 34 37 29 19 19 49
3 1 3 5 5 8 12 22 41 41 47 42 34 34 19 15 5 5 5 3 3 4 8 13 13 26 31 26 24 24 19 16 12 12 8 6 3 3 0 nan nan 0 9 7 7 nan nan nan nan nan nan nan nan nan nan nan nan nan nan nan nan nan nan nan nan nan nan nan nan nan nan nan nan nan nan nan nan nan nan 36 36 84 32 21 21 40
3 3 6 9 9 14 22 41 60 60 39 31 38 38 33 29 22 22 17 12 12 8 8 19 19 33 30 22 20 20 20 18 14 14 8 6 3 3 0 nan nan nan 11 12 12 0 nan nan nan nan nan nan nan nan nan nan nan nan nan nan nan nan nan nan nan nan nan nan nan nan nan nan nan nan nan nan nan nan nan nan nan 71 56 30 30 39
6 4 4 8 8 17 24 35 29 29 19 15 22 22 24 11 9 9 9 11 11 17 19 30 30 39 37 22 8 8 6 19 17 17 10 4 1 1 nan nan nan nan 12 25 25 16 nan nan nan nan nan nan nan nan nan nan nan nan nan nan nan nan nan nan nan nan nan nan nan nan nan nan nan nan nan nan nan nan nan nan nan nan 42 74 74 103
11 4 4 12 12 17 19 21 20 20 23 19 24 24 14 7 4 4 4 5 5 7 9 13 13 28 45 26 7 7 5 28 22 22 8 5 3 3 0 nan nan nan 16 29 29 20 1 nan nan nan nan nan nan nan nan nan nan nan nan nan nan nan nan nan nan nan nan nan nan nan nan nan nan nan nan nan nan nan nan nan nan nan nan 16 16 60
17 7 4 9 9 21 20 13 14 14 29 28 30 30 20 6 2 2 2 5 5 3 3 8 8 10 35 35 13 13 15 34 24 24 3 nan 0 0 nan nan nan 5 21 36 36 33 2 nan nan nan nan nan nan nan nan nan nan nan nan nan nan nan nan nan nan nan nan nan nan nan nan nan nan nan nan nan nan nan nan nan nan nan nan nan nan 2
9 9 9 14 14 15 17 12 14 14 21 15 14 14 12 7 5 5 3 3 3 2 2 4 4 9 13 36 22 22 26 39 35 35 8 nan nan nan nan nan nan 6 29 41 41 29 5 nan nan nan nan nan nan nan nan nan nan nan nan nan nan nan nan nan nan nan nan nan nan nan nan nan nan nan nan nan nan nan nan nan nan nan nan nan nan nan
8 5 9 13 13 10 8 7 11 11 10 4 3 3 1 4 8 8 4 3 3 4 2 2 2 4 8 19 29 29 31 38 36 36 19 0 1 1 0 1 1 25 61 68 68 29 9 nan nan nan nan nan nan nan nan nan nan nan nan nan nan nan nan nan nan nan nan nan nan nan nan nan nan nan nan nan nan nan nan nan nan nan nan nan nan nan
7 5 7 9 9 8 7 5 5 5 5 5 4 4 4 3 6 6 6 2 2 3 1 2 2 3 5 16 30 30 30 40 41 41 20 4 2 2 2 13 13 52 105 139 139 113 30 nan nan nan nan nan nan nan nan nan nan nan nan nan nan nan nan nan nan nan nan nan nan nan nan nan nan nan nan nan nan nan nan nan nan nan nan nan nan nan
6 6 8 8 8 7 7 7 9 9 8 9 9 9 9 6 4 4 2 1 1 0 0 1 1 2 6 26 43 43 36 42 38 38 21 6 3 3 3 16 16 50 87 150 150 158 47 25 25 10 nan nan nan nan nan nan nan nan nan nan nan nan nan nan nan nan nan nan nan nan nan nan nan nan nan nan nan nan nan nan nan nan nan nan nan nan
7 6 6 8 8 7 6 9 11 11 12 14 10 10 8 7 4 4 2 1 1 0 0 0 0 1 8 35 47 47 50 58 36 36 26 16 7 7 4 14 14 39 73 119 119 155 67 60 60 50 1 nan nan nan nan nan nan nan nan nan nan nan nan nan nan nan nan nan nan nan nan nan nan nan nan nan nan nan nan nan nan nan nan nan nan nan
8 7 7 7 7 7 7 8 10 10 13 14 11 11 9 8 5 5 3 3 3 2 1 1 1 2 5 29 9 9 6 18 40 40 43 34 7 7 9 20 20 40 61 92 92 138 130 96 96 60 18 nan nan nan nan nan nan nan nan nan nan nan nan nan nan nan nan nan nan nan nan nan nan nan nan nan nan nan nan nan nan nan nan nan nan nan
10 8 9 9 9 7 7 10 14 14 15 13 9 9 8 12 8 8 4 4 4 3 2 4 4 7 8 10 4 4 4 4 5 5 48 51 22 22 19 23 23 33 41 91 91 138 132 95 95 55 22 nan nan nan nan nan nan nan nan nan nan nan nan nan nan nan nan nan nan nan nan nan nan nan nan nan nan nan nan nan nan nan nan nan nan nan
12 9 10 10 10 8 7 9 15 15 18 11 7 7 8 14 8 8 4 4 4 3 2 2 2 8 7 9 6 6 4 3 4 4 8 20 18 18 15 13 13 19 50 110 110 150 151 122 122 85 14 nan nan nan nan nan nan nan nan nan nan nan nan nan nan nan nan nan nan nan nan nan nan nan nan nan nan nan nan nan nan nan nan nan nan nan
10 10 10 13 13 11 11 11 16 16 15 11 8 8 10 12 7 7 3 3 3 3 2 2 2 6 6 6 6 6 7 5 4 4 4 25 17 17 10 5 5 7 59 120 120 154 162 135 135 27 nan nan nan nan nan nan nan nan nan nan nan nan nan nan nan nan nan nan nan nan nan nan nan nan nan nan nan nan nan nan nan nan nan nan nan nan
13 10 12 15 15 12 12 15 19 19 19 17 12 12 11 14 7 7 3 1 1 2 2 2 2 2 4 4 5 5 5 5 5 5 4 23 16 16 10 6 6 6 43 129 129 180 181 129 129 49 nan nan nan nan nan nan nan nan nan nan nan nan nan nan nan nan nan nan nan nan nan nan nan nan nan nan nan nan nan nan nan nan nan nan nan nan
17 13 16 19 19 16 14 16 26 26 28 25 17 17 16 14 7 7 3 1 1 1 1 1 1 1 3 3 2 2 3 5 5 5 4 15 13 13 5 8 8 6 34 106 106 158 192 131 131 85 7 nan nan nan nan nan nan nan nan nan nan nan nan nan nan nan nan nan nan nan nan nan nan nan nan nan nan nan nan nan nan nan nan nan nan nan
17 14 20 29 29 23 22 25 38 38 35 36 23 23 24 15 7 7 3 2 2 1 1 1 1 1 3 2 0 0 2 6 5 5 4 3 10 10 1 4 4 10 12 81 81 135 154 133 133 71 3 nan nan nan nan nan nan nan nan nan nan nan nan nan nan nan nan nan nan nan nan nan nan nan nan nan nan nan nan nan nan nan nan nan nan nan
21 18 24 29 29 29 32 32 43 43 40 34 29 29 30 17 8 8 4 3 3 3 3 3 3 3 3 2 0 0 1 5 6 6 4 3 8 8 1 2 2 7 9 68 68 145 174 124 124 61 nan nan nan nan nan nan nan nan nan nan nan nan nan nan nan nan nan nan nan nan nan nan nan nan nan nan nan nan nan nan nan nan nan nan nan nan
25 24 27 31 31 37 36 36 40 40 35 33 37 37 39 20 9 9 6 6 6 6 7 3 3 1 2 0 nan nan 1 4 6 6 4 3 4 4 0 2 2 6 6 43 43 163 200 139 139 84 2 nan nan nan nan nan nan nan nan nan nan nan nan nan nan nan nan nan nan nan nan nan nan nan nan nan nan nan nan nan nan nan nan nan nan nan
24 26 28 32 32 52 48 36 40 40 33 32 47 47 35 11 8 8 9 9 9 7 4 1 1 0 0 0 3 3 3 3 4 4 5 6 6 6 0 2 2 7 3 1 1 63 159 113 113 76 20 nan nan nan nan nan nan nan nan nan nan nan nan nan nan nan nan nan nan nan nan nan nan nan nan nan nan nan nan nan nan nan nan nan nan nan
33 31 30 40 40 61 64 58 52 52 46 37 42 42 16 6 7 7 7 4 4 1 0 1 1 1 0 5 8 8 18 20 12 12 7 13 10 10 1 6 6 4 3 1 1 0 92 59 59 65 44 nan nan nan nan nan nan nan nan nan nan nan nan nan nan nan nan nan nan nan nan nan nan nan nan nan nan nan nan nan nan nan nan nan nan nan
44 48 57 58 58 53 51 47 45 45 56 63 47 47 14 7 6 6 3 1 1 0 0 1 1 0 0 4 6 6 6 11 6 6 5 4 7 7 3 7 7 3 2 1 1 1 44 49 49 39 44 2 nan nan nan nan nan nan nan nan nan nan nan nan nan nan nan nan nan nan nan nan nan nan nan nan nan nan nan nan nan nan nan nan nan nan
36 38 39 40 40 39 36 32 35 35 43 61 62 62 20 5 2 2 1 1 1 1 0 1 1 0 nan 1 3 3 1 8 5 5 4 4 2 2 3 6 6 3 1 0 0 1 nan 55 55 45 46 10 nan nan nan nan nan nan nan nan nan nan nan nan nan nan nan nan nan nan nan nan nan nan nan nan nan nan nan nan nan nan nan nan nan nan
26 28 27 29 29 27 25 21 22 22 33 45 45 45 22 4 1 1 2 2 2 1 1 1 1 0 0 nan 1 1 2 7 4 4 3 3 2 2 3 7 7 6 2 0 0 0 0 0 0 0 57 4 nan nan nan nan nan nan nan nan nan nan nan nan nan nan nan nan nan nan nan nan nan nan nan nan nan nan nan nan nan nan nan nan nan nan
8 16 15 17 17 15 11 4 11 11 22 33 34 34 19 4 3 3 3 3 3 2 1 1 1 0 nan nan 1 1 4 6 4 4 3 2 2 2 1 8 8 11 4 0 0 0 nan 0 0 0 0 nan 1 1 1 nan nan nan nan nan nan nan nan nan nan nan nan nan nan nan nan nan nan nan nan nan nan nan nan nan nan nan nan nan nan nan
1 1 1 2 2 2 1 0 3 3 13 18 16 16 9 4 4 4 5 5 5 3 1 0 0 0 0 nan 1 1 7 3 6 6 2 3 3 3 2 8 8 17 8 1 1 nan 0 nan nan 0 0 2 5 5 4 1 1 nan 1 nan nan nan nan nan nan nan nan nan nan nan nan nan nan nan nan nan nan nan nan nan nan nan nan nan nan nan
2 2 1 0 0 0 nan nan nan nan nan 0 1 1 3 3 3 3 3 3 3 3 2 1 1 1 1 0 nan nan 1 1 3 3 8 4 4 4 5 5 5 3 12 14 14 2 0 nan nan nan nan nan nan nan 0 0 0 3 2 nan nan 0 nan nan nan nan nan nan nan nan nan nan nan nan nan nan nan nan nan nan nan nan nan nan nan nan
4 3 1 1 1 0 0 nan nan nan 0 0 0 0 0 1 3 3 2 2 2 3 1 2 2 1 1 0 nan nan nan 0 2 2 9 5 5 5 5 4 4 3 4 7 7 2 1 0 0 0 nan nan nan nan nan nan nan nan 0 nan nan nan nan nan nan nan nan nan nan nan nan nan nan nan nan nan nan nan nan nan nan nan nan nan nan nan
2 3 2 0 0 0 0 nan 0 0 0 0 1 1 1 0 1 1 1 1 1 2 2 2 2 2 1 0 nan nan nan 0 2 2 7 7 6 6 3 3 3 3 2 1 1 0 1 1 1 0 nan nan nan nan nan nan nan nan 0 nan nan nan nan nan nan nan nan nan nan nan nan nan nan nan nan nan nan nan nan nan nan nan nan nan nan nan
1 2 1 0 0 0 0 0 0 0 0 0 0 0 1 0 0 0 0 1 1 1 1 1 1 2 1 0 nan nan nan nan 1 1 4 7 6 6 4 4 4 5 4 nan nan 0 0 0 0 1 nan nan nan nan nan nan nan nan nan nan nan nan nan nan nan nan nan nan nan nan nan nan nan nan nan nan nan nan nan nan nan nan nan nan nan nan
1 1 1 0 0 0 0 0 0 0 0 0 0 0 0 0 0 0 0 1 1 2 2 2 2 3 3 1 0 0 nan nan 2 2 4 7 6 6 4 4 4 4 5 0 0 0 0 nan nan nan nan nan nan nan nan nan nan nan nan nan nan nan nan nan nan nan nan nan nan nan nan nan nan nan nan nan nan nan nan nan nan nan nan nan nan nan
1 0 1 0 0 0 0 nan 0 0 0 nan 0 0 0 0 0 0 0 2 2 2 1 2 2 2 5 2 1 1 0 1 3 3 4 4 5 5 3 3 3 4 6 3 3 0 nan nan nan nan nan nan nan nan nan nan nan nan nan nan nan nan nan nan nan nan nan nan nan nan nan nan nan nan nan nan nan nan nan nan nan nan nan nan nan nan
1 0 1 0 0 0 nan nan 0 0 0 0 0 0 0 0 1 1 0 1 1 3 1 0 0 0 3 5 3 3 0 2 3 3 4 3 3 3 3 2 2 3 5 6 6 0 nan nan nan nan nan nan nan nan nan nan nan nan nan nan nan nan nan nan nan nan nan nan nan nan nan nan nan nan nan nan nan nan nan nan nan nan nan nan nan nan
0 0 0 0 0 0 0 0 0 0 0 0 0 0 0 0 1 1 1 1 1 0 0 0 0 0 1 1 1 1 2 1 1 1 2 2 2 2 2 2 2 3 5 6 6 0 nan nan nan 0 nan nan nan nan nan nan nan nan nan nan nan nan nan nan nan nan nan nan nan nan nan nan nan nan nan nan nan nan nan nan nan nan nan nan nan nan
1 0 0 1 1 0 0 0 nan nan nan 0 0 0 0 0 0 0 0 nan nan nan nan nan nan nan nan 0 1 1 1 nan 1 1 3 2 2 2 2 2 2 4 5 4 4 1 nan 0 0 1 nan nan nan nan nan nan nan nan nan nan nan nan nan nan nan nan nan nan nan nan nan nan nan nan nan nan nan nan nan nan nan nan nan nan nan nan
1 0 0 0 0 0 0 0 nan nan nan nan nan nan nan nan nan nan nan nan nan nan nan nan nan nan nan nan 1 1 2 nan 0 0 0 0 1 1 2 3 3 3 5 2 2 1 nan nan nan nan nan nan nan nan nan nan nan nan nan nan nan nan nan nan nan nan nan nan nan nan nan nan nan nan nan nan nan nan nan nan nan nan nan nan nan nan
4 1 nan nan nan nan nan nan 0 0 nan nan nan nan nan nan 0 0 nan nan nan nan nan nan nan nan nan nan 1 1 3 0 0 0 nan nan nan nan 2 3 3 4 5 1 1 0 nan nan nan nan nan nan nan nan nan nan nan nan nan nan nan nan nan nan nan nan nan nan nan nan nan nan nan nan nan nan nan nan nan nan nan nan nan nan nan nan
1 0 nan nan nan nan 0 0 0 0 nan nan nan nan nan nan 0 0 0 nan nan nan nan nan nan nan nan nan nan nan nan nan 0 0 nan nan nan nan 3 4 4 6 5 1 1 nan nan nan nan nan nan 0 0 0 nan nan nan nan nan nan nan nan nan nan nan nan nan nan nan nan nan nan nan nan nan nan nan nan nan nan nan nan nan nan nan nan
1 nan nan nan nan nan 0 nan nan nan nan nan nan nan nan nan 1 1 0 nan nan nan nan nan nan nan nan nan nan nan nan 0 nan nan nan 1 nan nan 0 0 0 3 4 nan nan nan nan nan nan nan nan 0 0 0 nan nan nan nan nan nan nan nan nan nan nan nan nan nan nan nan nan nan nan nan nan nan nan nan nan nan nan nan nan nan nan nan
nan nan nan nan nan nan nan nan nan nan nan nan nan nan nan 0 1 1 nan nan nan nan nan nan nan nan nan nan nan nan nan nan nan nan nan nan 0 0 nan nan nan nan nan nan nan nan nan nan nan nan nan nan nan nan nan nan nan nan nan nan nan nan nan nan nan nan nan nan nan nan nan nan nan nan nan nan nan nan nan nan nan nan nan nan nan nan
0 nan nan nan nan nan nan nan nan nan nan nan nan nan nan nan 0 0 0 nan nan nan nan nan nan nan nan nan nan nan nan nan nan nan nan nan nan nan nan nan nan nan nan nan nan nan nan nan nan 0 nan nan nan nan nan nan nan nan nan nan nan nan nan nan nan nan nan nan nan nan nan nan nan nan nan nan nan nan nan nan nan nan nan nan nan nan
nan nan nan nan nan nan nan nan nan nan nan nan nan nan nan nan 0 0 nan nan nan nan nan nan nan nan nan nan nan nan nan nan nan nan nan nan nan nan nan nan nan nan nan nan nan nan nan nan nan 0 nan nan nan nan nan nan nan nan nan nan nan nan nan nan nan nan nan nan nan nan nan nan nan nan nan nan nan nan nan nan nan nan nan nan nan nan
0 0 nan nan nan nan nan nan nan nan nan nan nan nan nan nan 0 0 nan nan nan nan nan nan nan nan nan nan nan nan nan nan nan nan nan nan nan nan nan nan nan nan nan nan nan nan nan nan nan nan nan nan nan nan nan nan nan nan nan nan nan nan nan nan nan nan nan nan nan nan nan nan nan nan nan nan nan nan nan nan nan nan nan nan nan nan
nan nan nan nan nan nan nan nan nan nan nan nan nan nan nan 1 6 6 0 nan nan nan nan nan nan nan nan nan nan nan nan nan nan nan nan nan nan nan nan nan nan nan nan nan nan nan nan nan nan nan nan nan nan nan nan nan nan nan nan nan nan nan nan nan nan nan nan nan nan nan nan nan nan nan nan nan nan nan nan nan nan nan nan nan nan nan
nan nan 0 0 0 nan nan nan nan nan nan nan nan nan nan nan 0 0 nan nan nan nan nan nan nan nan nan nan nan nan nan nan nan nan nan nan nan nan 0 0 0 nan nan nan nan nan nan nan nan nan 3 0 nan nan nan nan nan nan nan nan nan nan nan nan nan nan nan nan nan nan nan nan nan nan nan nan nan nan nan nan nan nan nan nan nan nan
0 0 nan 0 0 0 nan nan nan nan nan nan nan nan nan nan nan nan nan nan nan nan nan nan nan nan nan nan nan nan nan nan nan nan nan nan nan nan 1 1 1 0 nan nan nan nan nan nan nan nan nan 2 nan nan nan nan nan nan nan nan nan nan nan nan nan nan nan nan nan nan nan nan nan nan nan nan nan nan nan nan nan nan nan nan nan nan
CIN
-0 -0 -0 -0 -0 -0 nan -0 -0 -0 -0 nan nan nan nan nan nan nan nan nan nan -0 -0 -0 -0 -0 -0 -0 -0 -0 -0 -0 -0 -0 -0 -0 -0 -0 -0 -0 -0 -0 -0 -0 -0 -0 nan nan nan nan nan nan nan nan nan nan nan nan nan nan nan nan nan nan nan nan nan nan -95 -95 -1 -0 -0 -0 -0 -0 -0 -0 -0 -0 -0 -45 -81 -108 -108 -123
-0 -0 -0 -0 -0 -0 nan -0 -0 -0 -0 -0 -0 -0 nan nan nan nan nan nan nan -0 -0 -0 -0 -0 -0 -0 -0 -0 -0 -0 -0 -0 -0 -0 -0 -0 -0 -0 -0 -0 -0 -0 -0 nan nan nan nan nan nan nan nan nan nan nan nan nan nan nan nan nan nan nan nan nan nan nan nan nan -77 -1 -0 -0 -0 -0 -0 -0 -0 -0 -0 -68 -99 -118 -118 -111
-0 -0 -0 -0 -0 -0 nan -0 -0 -0 -0 -0 -0 -0 -0 -0 nan nan nan -1 -1 -0 -0 -0 -0 -0 -0 -0 -0 -0 -0 -0 -0 -0 -0 -0 -0 -0 -0 -0 -0 -0 -0 nan nan nan nan nan nan nan nan nan nan nan nan nan nan nan nan nan nan nan nan nan nan nan nan nan nan nan nan -2 -0 -0 -0 -0 -0 -0 -0 -53 -53 -99 -136 -127 -127 -106
-0 -0 -0 -0 -0 -0 -0 -0 -0 -0 -0 -0 -0 -0 -0 -0 -0 -0 -0 -1 -1 -1 -1 -0 -0 -0 -0 -0 -0 -0 -0 -0 -0 -0 -0 -0 -0 -0 -0 -0 -0 -0 -0 -17 -17 nan nan nan nan nan nan nan nan nan nan nan nan nan nan nan nan nan nan nan nan nan nan nan nan nan nan nan -4 -4 -2 -2 -49 -49 -63 -80 -80 -123 -149 -121 -121 -104
-0 -0 -0 -0 -0 -0 -0 -0 -0 -0 -0 -0 -0 -0 -0 -0 -0 -0 -0 -3 -3 -2 -1 -0 -0 -0 -0 -0 -0 -0 -0 -0 -0 -0 -0 -0 -0 -0 -0 -0 -0 -0 -0 -0 -0 nan nan nan nan nan nan nan nan nan nan nan nan nan nan nan nan nan nan nan nan nan nan nan nan nan nan nan nan nan nan nan nan nan -100 -84 -84 -104 -123 -122 -122 -102
-0 -0 -0 -0 -0 -0 -0 -0 -0 -0 -0 -0 -0 -0 -0 -0 -0 -0 -0 -0 -0 -1 -1 -0 -0 -0 -0 -0 -0 -0 -0 -0 -0 -0 -0 -0 -0 -0 -0 nan nan -0 -0 -0 -0 nan nan nan nan nan nan nan nan nan nan nan nan nan nan nan nan nan nan nan nan nan nan nan nan nan nan nan nan nan nan nan nan nan nan -80 -80 -63 -102 -116 -116 -100
-0 -0 -0 -0 -0 -0 -0 -0 -0 -0 -0 -0 -0 -0 -0 -0 -0 -0 -0 -0 -0 -0 -1 -0 -0 -0 -0 -0 -0 -0 -0 -0 -0 -0 -0 -0 -0 -0 -0 nan nan nan -0 -0 -0 -22 nan nan nan nan nan nan nan nan nan nan nan nan nan nan nan nan nan nan nan nan nan nan nan nan nan nan nan nan nan nan nan nan nan nan nan -64 -0 -0 -0 -0
-0 -0 -0 -0 -0 -0 -0 -0 -0 -0 -0 -0 -0 -0 -0 -0 -0 -0 -0 -0 -0 -0 -0 -0 -0 -0 -0 -0 -0 -0 -0 -0 -0 -0 -0 -0 -0 -0 nan nan nan nan -21 -0 -0 -13 nan nan nan nan nan nan nan nan nan nan nan nan nan nan nan nan nan nan nan nan nan nan nan nan nan nan nan nan nan nan nan nan nan nan nan nan -96 -84 -84 -64
-0 -0 -0 -0 -0 -0 -0 -0 -0 -0 -0 -0 -0 -0 -0 -0 -0 -0 -0 -0 -0 -0 -0 -0 -0 -0 -0 -0 -0 -0 -0 -0 -0 -0 -0 -0 -0 -0 -0 nan nan nan -0 -0 -0 -12 -26 nan nan nan nan nan nan nan nan nan nan nan nan nan nan nan nan nan nan nan nan nan nan nan nan nan nan nan nan nan nan nan nan nan nan nan nan -146 -146 -104
-0 -0 -0 -0 -0 -0 -0 -0 -0 -0 -0 -0 -0 -0 -0 -0 -0 -0 -0 -0 -0 -0 -0 -0 -0 -0 -0 -0 -0 -0 -0 -0 -0 -0 -0 nan -0 -0 nan nan nan -0 -0 -0 -0 -10 -17 nan nan nan nan nan nan nan nan nan nan nan nan nan nan nan nan nan nan nan nan nan nan nan nan nan nan nan nan nan nan nan nan nan nan nan nan nan nan -193
-0 -0 -0 -0 -0 -0 -0 -0 -0 -0 -0 -0 -0 -0 -0 -0 -0 -0 -0 -0 -0 -0 -0 -0 -0 -0 -0 -0 -0 -0 -0 -0 -0 -0 -0 nan nan nan nan nan nan -57 -22 -15 -15 -16 -24 nan nan nan nan nan nan nan nan nan nan nan nan nan nan nan nan nan nan nan nan nan nan nan nan nan nan nan nan nan nan nan nan nan nan nan nan nan nan nan
-0 -0 -0 -0 -0 -0 -0 -0 -0 -0 -0 -0 -0 -0 -0 -0 -0 -0 -0 -0 -0 -0 -0 -0 -0 -0 -0 -0 -0 -0 -0 -0 -0 -0 -0 -0 -0 -0 -0 -54 -54 -43 -19 -13 -13 -21 -30 nan nan nan nan nan nan nan nan nan nan nan nan nan nan nan nan nan nan nan nan nan nan nan nan nan nan nan nan nan nan nan nan nan nan nan nan nan nan nan
-0 -0 -0 -0 -0 -0 -0 -0 -0 -0 -0 -0 -0 -0 -0 -0 -0 -0 -0 -0 -0 -0 -0 -0 -0 -0 -0 -0 -0 -0 -0 -0 -0 -0 -0 -0 -0 -0 -0 -0 -0 -34 -0 -0 -0 -0 -22 nan nan nan nan nan nan nan nan nan nan nan nan nan nan nan nan nan nan nan nan nan nan nan nan nan nan nan nan nan nan nan nan nan nan nan nan nan nan nan
-0 -0 -0 -0 -0 -0 -0 -0 -0 -0 -0 -0 -0 -0 -0 -0 -0 -0 -0 -0 -0 -0 -0 -0 -0 -0 -0 -0 -0 -0 -0 -0 -0 -0 -0 -0 -0 -0 -0 -0 -0 -0 -0 -0 -0 -0 -21 -26 -26 -26 nan nan nan nan nan nan nan nan nan nan nan nan nan nan nan nan nan nan nan nan nan nan nan nan nan nan nan nan nan nan nan nan nan nan nan nan
-0 -0 -0 -0 -0 -0 -0 -0 -0 -0 -0 -0 -0 -0 -0 -0 -0 -0 -0 -0 -0 -0 -0 -0 -0 -0 -0 -0 -0 -0 -0 -0 -0 -0 -0 -0 -0 -0 -0 -0 -0 -0 -0 -0 -0 -0 -18 -1 -1 -0 -53 nan nan nan nan nan nan nan nan nan nan nan nan nan nan nan nan nan nan nan nan nan nan nan nan nan nan nan nan nan nan nan nan nan nan nan
-0 -0 -0 -0 -0 -0 -0 -0 -0 -0 -0 -0 -0 -0 -0 -0 -0 -0 -0 -0 -0 -0 -0 -0 -0 -0 -0 -0 -0 -0 -0 -0 -0 -0 -0 -0 -0 -0 -0 -0 -0 -0 -26 -0 -0 -0 -0 -0 -0 -0 -0 nan nan nan nan nan nan nan nan nan nan nan nan nan nan nan nan nan nan nan nan nan nan nan nan nan nan nan nan nan nan nan nan nan nan nan
-0 -0 -0 -0 -0 -0 -0 -0 -0 -0 -0 -0 -0 -0 -0 -0 -0 -0 -0 -0 -0 -0 -0 -0 -0 -0 -0 -0 -0 -0 -0 -0 -0 -0 -0 -0 -0 -0 -0 -0 -0 -0 -24 -0 -0 -0 -0 -0 -0 -0 -0 nan nan nan nan nan nan nan nan nan nan nan nan nan nan nan nan nan nan nan nan nan nan nan nan nan nan nan nan nan nan nan nan nan nan nan
-0 -0 -0 -0 -0 -0 -0 -0 -0 -0 -0 -0 -0 -0 -0 -0 -0 -0 -0 -0 -0 -0 -0 -0 -0 -0 -0 -0 -0 -0 -0 -0 -0 -0 -0 -0 -0 -0 -0 -0 -0 -0 -0 -0 -0 -0 -0 -0 -0 -0 -1 nan nan nan nan nan nan nan nan nan nan nan nan nan nan nan nan nan nan nan nan nan nan nan nan nan nan nan nan nan nan nan nan nan nan nan
-0 -0 -0 -0 -0 -0 -0 -0 -0 -0 -0 -0 -0 -0 -0 -0 -0 -0 -0 -0 -0 -0 -0 -0 -0 -0 -0 -0 -0 -0 -0 -0 -0 -0 -0 -0 -0 -0 -0 -0 -0 -0 -0 -0 -0 -0 -0 -0 -0 -71 nan nan nan nan nan nan nan nan nan nan nan nan nan nan nan nan nan nan nan nan nan nan nan nan nan nan nan nan nan nan nan nan nan nan nan nan
-0 -0 -0 -0 -0 -0 -0 -0 -0 -0 -0 -0 -0 -0 -0 -0 -0 -0 -0 -0 -0 -0 -0 -0 -0 -0 -0 -0 -0 -0 -0 -0 -0 -0 -0 -0 -0 -0 -0 -0 -0 -0 -0 -0 -0 -0 -0 -0 -0 -51 nan nan nan nan nan nan nan nan nan nan nan nan nan nan nan nan nan nan nan nan nan nan nan nan nan nan nan nan nan nan nan nan nan nan nan nan
-0 -0 -0 -0 -0 -0 -0 -0 -0 -0 -0 -0 -0 -0 -0 -0 -0 -0 -0 -0 -0 -0 -0 -0 -0 -0 -0 -0 -0 -0 -0 -0 -0 -0 -0 -0 -0 -0 -0 -0 -0 -0 -0 -0 -0 -0 -0 -0 -0 -0 -128 nan nan nan nan nan nan nan nan nan nan nan nan nan nan nan nan nan nan nan nan nan nan nan nan nan nan nan nan nan nan nan nan nan nan nan
-0 -0 -0 -0 -0 -0 -0 -0 -0 -0 -0 -0 -0 -0 -0 -0 -0 -0 -0 -0 -0 -0 -0 -0 -0 -0 -0 -0 -1 -1 -0 -0 -0 -0 -0 -0 -0 -0 -0 -0 -0 -0 -0 -0 -0 -0 -0 -0 -0 -0 -139 nan nan nan nan nan nan nan nan nan nan nan nan nan nan nan nan nan nan nan nan nan nan nan nan nan nan nan nan nan nan nan nan nan nan nan
-0 -0 -0 -0 -0 -0 -0 -0 -0 -0 -0 -0 -0 -0 -0 -0 -0 -0 -0 -0 -0 -0 -0 -0 -0 -0 -0 -0 -1 -1 -0 -0 -0 -0 -0 -0 -0 -0 -0 -0 -0 -0 -0 -0 -0 -0 -0 -0 -0 -0 nan nan nan nan nan nan nan nan nan nan nan nan nan nan nan nan nan nan nan nan nan nan nan nan nan nan nan nan nan nan nan nan nan nan nan nan
-0 -0 -0 -0 -0 -0 -0 -0 -0 -0 -0 -0 -0 -0 -0 -0 -0 -0 -0 -0 -0 -0 -0 -0 -0 -0 -0 -0 nan nan -0 -0 -0 -0 -0 -0 -0 -0 -0 -0 -0 -0 -0 -0 -0 -0 -0 -0 -0 -0 -127 nan nan nan nan nan nan nan nan nan nan nan nan nan nan nan nan nan nan nan nan nan nan nan nan nan nan nan nan nan nan nan nan nan nan nan
-0 -0 -0 -0 -0 -0 -0 -0 -0 -0 -0 -0 -0 -0 -0 -0 -0 -0 -0 -0 -0 -0 -0 -0 -0 -0 -0 -0 -0 -0 -0 -0 -0 -0 -0 -0 -0 -0 -0 -0 -0 -0 -0 -0 -0 -0 -0 -0 -0 -0 -0 nan nan nan nan nan nan nan nan nan nan nan nan nan nan nan nan nan nan nan nan nan nan nan nan nan nan nan nan nan nan nan nan nan nan nan
-0 -0 -0 -0 -0 -0 -0 -0 -0 -0 -0 -0 -0 -0 -0 -0 -0 -0 -0 -0 -0 -0 -0 -0 -0 -0 -0 -0 -0 -0 -0 -0 -0 -0 -0 -0 -0 -0 -0 -0 -0 -0 -0 -0 -0 -0 -0 -0 -0 -0 -0 nan nan nan nan nan nan nan nan nan nan nan nan nan nan nan nan nan nan nan nan nan nan nan nan nan nan nan nan nan nan nan nan nan nan nan
-0 -0 -0 -0 -0 -0 -0 -0 -0 -0 -0 -0 -0 -0 -0 -0 -0 -0 -0 -0 -0 -0 -0 -0 -0 -0 -0 -0 -0 -0 -0 -0 -0 -0 -0 -0 -0 -0 -0 -0 -0 -0 -0 -0 -0 -0 -0 -0 -0 -0 -0 -0 nan nan nan nan nan nan nan nan nan nan nan nan nan nan nan nan nan nan nan nan nan nan nan nan nan nan nan nan nan nan nan nan nan nan
-0 -0 -0 -0 -0 -0 -0 -0 -0 -0 -0 -0 -0 -0 -0 -0 -0 -0 -0 -0 -0 -0 -0 -0 -0 -0 nan -0 -0 -0 -0 -0 -0 -0 -0 -0 -0 -0 -0 -0 -0 -0 -0 -0 -0 -0 nan -0 -0 -0 -0 -0 nan nan nan nan nan nan nan nan nan nan nan nan nan nan nan nan nan nan nan nan nan nan nan nan nan nan nan nan nan nan nan nan nan nan
-0 -0 -0 -0 -0 -0 -0 -0 -0 -0 -0 -0 -0 -0 -0 -0 -0 -0 -0 -0 -0 -0 -0 -0 -0 -0 -0 nan -0 -0 -0 -0 -0 -0 -0 -0 -0 -0 -0 -0 -0 -0 -0 -0 -0 -0 -0 -0 -0 -0 -0 -0 nan nan nan nan nan nan nan nan nan nan nan nan nan nan nan nan nan nan nan nan nan nan nan nan nan nan nan nan nan nan nan nan nan nan
-0 -0 -0 -0 -0 -0 -0 -0 -0 -0 -0 -0 -0 -0 -0 -0 -0 -0 -0 -0 -0 -0 -0 -0 -0 -0 nan nan -0 -0 -0 -0 -0 -0 -0 -0 -0 -0 -0 -0 -0 -0 -0 -0 -0 -0 nan -0 -0 -0 -0 nan -0 -0 -0 nan nan nan nan nan nan nan nan nan nan nan nan nan nan nan nan nan nan nan nan nan nan nan nan nan nan nan nan nan nan nan
-0 -0 -0 -0 -0 -0 -0 -0 -0 -0 -0 -0 -0 -0 -0 -0 -0 -0 -0 -0 -0 -0 -0 -0 -0 -0 -0 nan -0 -0 -0 -0 -0 -0 -0 -0 -0 -0 -0 -0 -0 -0 -0 -0 -0 nan -0 nan nan -0 -0 -2 -0 -0 -0 -0 -0 nan -0 nan nan nan nan nan nan nan nan nan nan nan nan nan nan nan nan nan nan nan nan nan nan nan nan nan nan nan
-0 -0 -0 -0 -0 -0 nan nan nan nan nan -0 -0 -0 -0 -0 -0 -0 -0 -0 -0 -0 -0 -0 -0 -0 -0 -0 nan nan -0 -0 -0 -0 -0 -0 -0 -0 -0 -0 -0 -0 -0 -0 -0 -0 -0 nan nan nan nan nan nan nan -2 -1 -1 -0 -58 nan nan -0 nan nan nan nan nan nan nan nan nan nan nan nan nan nan nan nan nan nan nan nan nan nan nan nan
-0 -0 -0 -0 -0 -0 -0 nan nan nan -0 -0 -0 -0 -0 -0 -0 -0 -0 -0 -0 -0 -0 -0 -0 -0 -0 -0 nan nan nan -0 -0 -0 -0 -0 -0 -0 -0 -0 -0 -0 -0 -0 -0 -0 -0 -0 -0 -0 nan nan nan nan nan nan nan nan -59 nan nan nan nan nan nan nan nan nan nan nan nan nan nan nan nan nan nan nan nan nan nan nan nan nan nan nan
-0 -0 -0 -0 -0 -0 -0 nan -0 -0 -0 -0 -0 -0 -0 -0 -0 -0 -0 -0 -0 -0 -0 -0 -0 -0 -0 -0 nan nan nan -0 -0 -0 -0 -0 -0 -0 -0 -0 -0 -0 -0 -0 -0 -0 -0 -0 -0 -0 nan nan nan nan nan nan nan nan -1 nan nan nan nan nan nan nan nan nan nan nan nan nan nan nan nan nan nan nan nan nan nan nan nan nan nan nan
-0 -0 -0 -0 -0 -0 -0 -0 -0 -0 -0 -0 -0 -0 -0 -0 -0 -0 -0 -0 -0 -0 -0 -0 -0 -0 -0 -0 nan nan nan nan -0 -0 -0 -0 -0 -0 -0 -0 -0 -0 -0 nan nan -0 -0 -0 -0 -0 nan nan nan nan nan nan nan nan nan nan nan nan nan nan nan nan nan nan nan nan nan nan nan nan nan nan nan nan nan nan nan nan nan nan nan nan
-0 -0 -0 -0 -0 -0 -0 -0 -0 -0 -0 -0 -0 -0 -0 -0 -0 -0 -0 -0 -0 -0 -0 -0 -0 -0 -0 -0 -0 -0 nan nan -0 -0 -0 -0 -0 -0 -0 -0 -0 -0 -0 -0 -0 -0 -0 nan nan nan nan nan nan nan nan nan nan nan nan nan nan nan nan nan nan nan nan nan nan nan nan nan nan nan nan nan nan nan nan nan nan nan nan nan nan nan
-0 -0 -0 -0 -0 -0 -0 nan -0 -0 -0 nan -0 -0 -0 -0 -0 -0 -0 -0 -0 -0 -0 -0 -0 -0 -0 -0 -0 -0 -0 -0 -0 -0 -0 -0 -0 -0 -0 -0 -0 -0 -0 -0 -0 -0 nan nan nan nan nan nan nan nan nan nan nan nan nan nan nan nan nan nan nan nan nan nan nan nan nan nan nan nan nan nan nan nan nan nan nan nan nan nan nan nan
-0 -0 -0 -0 -0 -0 nan nan -0 -0 -0 -0 -0 -0 -0 -0 -0 -0 -0 -0 -0 -0 -0 -0 -0 -0 -0 -0 -0 -0 -1 -0 -0 -0 -0 -0 -0 -0 -0 -0 -0 -0 -0 -0 -0 -0 nan nan nan nan nan nan nan nan nan nan nan nan nan nan nan nan nan nan nan nan nan nan nan nan nan nan nan nan nan nan nan nan nan nan nan nan nan nan nan nan
-0 -0 -0 -0 -0 -0 -0 -0 -0 -0 -0 -0 -0 -0 -0 -0 -0 -0 -0 -0 -0 -0 -0 -0 -0 -0 -0 -0 -0 -0 -0 -0 -0 -0 -0 -0 -0 -0 -0 -0 -0 -0 -0 -0 -0 -0 nan nan nan -1 nan nan nan nan nan nan nan nan nan nan nan nan nan nan nan nan nan nan nan nan nan nan nan nan nan nan nan nan nan nan nan nan nan nan nan nan
-0 -0 -0 -0 -0 -0 -0 -0 nan nan nan -0 -0 -0 -0 -0 -0 -0 -0 nan nan nan nan nan nan nan nan -0 -0 -0 -0 nan -0 -0 -0 -0 -0 -0 -0 -0 -0 -0 -0 -0 -0 -0 nan -0 -0 -1 nan nan nan nan nan nan nan nan nan nan nan nan nan nan nan nan nan nan nan nan nan nan nan nan nan nan nan nan nan nan nan nan nan nan nan nan
-0 -0 -0 -0 -0 -0 -0 -0 nan nan nan nan nan nan nan nan nan nan nan nan nan nan nan nan nan nan nan nan -0 -0 -0 nan -0 -0 -0 -0 -0 -0 -0 -0 -0 -0 -0 -0 -0 -0 nan nan nan nan nan nan nan nan nan nan nan nan nan nan nan nan nan nan nan nan nan nan nan nan nan nan nan nan nan nan nan nan nan nan nan nan nan nan nan nan
-0 -0 nan nan nan nan nan nan -0 -0 nan nan nan nan nan nan -0 -0 nan nan nan nan nan nan nan nan nan nan -1 -1 -1 -1 -1 -1 nan nan nan nan -0 -0 -0 -0 -0 -0 -0 -0 nan nan nan nan nan nan nan nan nan nan nan nan nan nan nan nan nan nan nan nan nan nan nan nan nan nan nan nan nan nan nan nan nan nan nan nan nan nan nan nan
-0 -0 nan nan nan nan -0 -0 -0 -0 nan nan nan nan nan nan -0 -0 -0 nan nan nan nan nan nan nan nan nan nan nan nan nan -1 -1 nan nan nan nan -0 -0 -0 -0 -0 -0 -0 nan nan nan nan nan nan -2 -2 -2 nan nan nan nan nan nan nan nan nan nan nan nan nan nan nan nan nan nan nan nan nan nan nan nan nan nan nan nan nan nan nan nan
-0 nan nan nan nan nan -0 nan nan nan nan nan nan nan nan nan -0 -0 -0 nan nan nan nan nan nan nan nan nan nan nan nan -1 nan nan nan -0 nan nan -0 -0 -0 -0 -0 nan nan nan nan nan nan nan nan -4 -2 -2 nan nan nan nan nan nan nan nan nan nan nan nan nan nan nan nan nan nan nan nan nan nan nan nan nan nan nan nan nan nan nan nan
nan nan nan nan nan nan nan nan nan nan nan nan nan nan nan -0 -0 -0 nan nan nan nan nan nan nan nan nan nan nan nan nan nan nan nan nan nan -0 -0 nan nan nan nan nan nan nan nan nan nan nan nan nan nan nan nan nan nan nan nan nan nan nan nan nan nan nan nan nan nan nan nan nan nan nan nan nan nan nan nan nan nan nan nan nan nan nan nan
-0 nan nan nan nan nan nan nan nan nan nan nan nan nan nan nan -0 -0 -0 nan nan nan nan nan nan nan nan nan nan nan nan nan nan nan nan nan nan nan nan nan nan nan nan nan nan nan nan nan nan -0 nan nan nan nan nan nan nan nan nan nan nan nan nan nan nan nan nan nan nan nan nan nan nan nan nan nan nan nan nan nan nan nan nan nan nan nan
nan nan nan nan nan nan nan nan nan nan nan nan nan nan nan nan -0 -0 nan nan nan nan nan nan nan nan nan nan nan nan nan nan nan nan nan nan nan nan nan nan nan nan nan nan nan nan nan nan nan -0 nan nan nan nan nan nan nan nan nan nan nan nan nan nan nan nan nan nan nan nan nan nan nan nan nan nan nan nan nan nan nan nan nan nan nan nan
-0 -0 nan nan nan nan nan nan nan nan nan nan nan nan nan nan -0 -0 nan nan nan nan nan nan nan nan nan nan nan nan nan nan nan nan nan nan nan nan nan nan nan nan nan nan nan nan nan nan nan nan nan nan nan nan nan nan nan nan nan nan nan nan nan nan nan nan nan nan nan nan nan nan nan nan nan nan nan nan nan nan nan nan nan nan nan nan
nan nan nan nan nan nan nan nan nan nan nan nan nan nan nan -0 -0 -0 -0 nan nan nan nan nan nan nan nan nan nan nan nan nan nan nan nan nan nan nan nan nan nan nan nan nan nan nan nan nan nan nan nan nan nan nan nan nan nan nan nan nan nan nan nan nan nan nan nan nan nan nan nan nan nan nan nan nan nan nan nan nan nan nan nan nan nan nan
nan nan -0 -0 -0 nan nan nan nan nan nan nan nan nan nan nan -0 -0 nan nan nan nan nan nan nan nan nan nan nan nan nan nan nan nan nan nan nan nan -0 -0 -0 nan nan nan nan nan nan nan nan nan -0 -0 nan nan nan nan nan nan nan nan nan nan nan nan nan nan nan nan nan nan nan nan nan nan nan nan nan nan nan nan nan nan nan nan nan nan
-0 -0 nan -0 -0 -0 nan nan nan nan nan nan nan nan nan nan nan nan nan nan nan nan nan nan nan nan nan nan nan nan nan nan nan nan nan nan nan nan -0 -0 -0 -0 nan nan nan nan nan nan nan nan nan -0 nan nan nan nan nan nan nan nan nan nan nan nan nan nan nan nan nan nan nan nan nan nan nan nan nan nan nan nan nan nan nan nan nan nan
Wind_Speed
7 7 8 11 11 10 9 12 12 11 10 9 8 8 8 9 8 9 10 10 10 9 8 7 7 8 9 10 10 11 11 11 11 11 11 11 11 12 12 13 13 13 14 13 11 7 3 5 8 9 10 11 13 15 18 20 22 23 24 24 24 24 24 24 24 25 25 26 27 28 29 31 32 32 30 27 25 24 23 22 20 19 19 20 20 21
7 7 8 10 11 11 9 11 12 12 10 10 9 9 9 9 9 8 8 9 9 8 6 6 7 8 9 9 9 10 11 11 11 11 10 10 11 12 12 12 13 13 13 12 10 7 4 5 7 8 9 10 11 12 14 17 20 22 25 25 25 24 22 22 22 23 24 26 27 28 29 30 31 32 31 27 25 23 24 23 21 20 19 19 20 21
7 7 7 8 10 10 9 11 11 11 11 11 10 10 11 11 9 8 7 7 7 6 6 6 7 8 8 8 8 10 10 11 11 10 9 9 10 11 11 12 12 13 12 11 9 7 4 4 5 7 8 8 9 10 12 14 17 20 23 24 24 23 22 20 20 20 21 23 25 27 29 30 30 31 31 28 25 23 22 22 22 21 20 20 20 21
7 7 7 7 7 8 9 10 10 10 10 10 10 11 11 10 8 7 7 7 6 6 6 7 7 7 7 6 7 8 10 10 10 9 8 8 9 10 11 11 11 12 12 11 9 6 4 3 5 7 8 8 8 9 10 12 14 17 20 22 23 23 22 20 19 19 19 20 22 24 27 28 29 29 29 28 26 23 21 22 22 23 23 22 21 21
7 7 7 7 6 7 8 9 9 9 9 9 9 9 9 8 7 7 7 7 7 6 6 7 7 7 6 5 6 8 10 10 10 9 8 7 8 9 10 10 11 12 12 10 8 5 4 3 4 6 8 9 9 9 10 11 13 14 17 19 20 21 22 21 19 18 18 18 19 21 23 25 26 27 28 27 25 23 21 22 23 24 25 25 23 22
6 6 7 6 6 6 6 7 8 8 9 8 8 8 7 6 6 6 6 6 6 6 5 6 6 6 6 5 6 8 9 10 9 8 7 6 7 8 9 9 10 11 12 10 7 5 4 4 5 6 8 9 10 10 10 10 12 13 14 17 19 20 21 20 19 19 19 19 19 19 20 21 22 24 25 24 23 22 21 22 23 24 26 26 25 23
6 6 6 6 5 5 5 5 6 7 8 8 7 7 6 5 5 5 6 6 5 5 5 5 5 5 5 5 6 7 8 8 8 6 5 5 6 7 8 8 9 11 11 10 7 4 4 4 5 7 8 9 10 10 10 10 11 12 13 15 17 19 20 20 20 20 20 20 20 20 19 19 20 20 21 21 20 19 20 22 22 23 25 26 26 25
6 6 6 6 5 5 4 4 5 6 7 7 7 7 6 6 6 6 6 6 6 5 5 4 4 4 4 4 5 5 6 6 5 4 3 4 5 5 6 7 8 10 11 9 6 3 4 6 7 7 8 9 10 10 10 11 11 12 13 14 16 18 20 21 21 21 21 21 21 21 21 20 19 19 19 17 16 16 17 20 21 22 23 23 24 24
7 7 6 6 6 6 5 4 5 6 7 7 7 6 6 7 6 6 6 6 5 5 5 5 3 3 3 3 4 4 5 4 3 2 2 2 3 4 5 5 6 8 10 8 5 3 5 7 7 8 9 9 10 11 11 11 12 12 13 14 15 17 20 21 22 22 22 22 22 22 21 21 21 20 19 17 15 14 14 17 18 19 20 20 20 21
7 7 6 6 5 5 5 5 5 6 7 7 6 5 5 6 7 7 6 5 5 5 5 5 5 4 2 2 3 3 4 4 3 2 1 1 2 3 3 3 4 5 8 7 5 4 5 7 8 8 9 9 10 11 12 12 13 13 14 14 15 16 18 20 21 22 22 22 22 22 21 22 22 22 21 19 16 14 13 15 16 17 18 18 18 19
6 6 6 5 5 4 4 5 5 5 7 6 5 5 4 5 6 7 8 6 6 6 5 5 5 4 3 2 2 2 3 2 2 2 2 1 2 3 2 2 2 3 5 4 3 3 5 6 6 7 8 8 9 10 11 12 13 13 14 15 15 16 17 19 20 21 22 22 22 22 22 22 22 22 22 21 18 16 14 14 15 16 17 17 18 18
5 5 4 4 4 4 4 4 4 5 6 6 5 4 5 6 5 6 7 7 7 7 6 5 5 4 4 3 2 2 2 2 1 1 2 1 2 2 2 1 1 1 2 2 2 3 4 5 5 5 6 6 6 7 8 9 11 13 14 14 15 16 17 18 19 21 22 22 22 22 22 22 22 22 22 21 19 18 15 14 14 14 16 17 18 19
4 4 4 4 4 4 4 5 5 4 5 5 5 6 6 6 6 6 5 6 7 7 7 6 5 5 5 4 2 2 2 1 1 1 2 2 1 1 1 0 1 1 1 0 2 3 3 3 3 3 4 4 4 4 5 6 9 11 13 14 15 16 17 18 19 20 21 22 22 22 21 21 21 21 20 20 19 18 17 15 14 14 15 17 18 19
5 4 4 4 4 4 4 5 5 5 5 5 5 6 6 6 6 6 6 7 7 7 7 7 6 5 4 3 2 2 2 1 1 2 2 2 2 1 1 1 1 2 2 1 1 2 3 3 2 2 3 3 3 3 4 5 7 10 12 13 14 15 16 17 18 19 20 20 21 21 20 20 20 20 19 19 19 18 18 17 15 14 14 16 18 19
5 5 5 5 4 4 4 5 5 5 5 4 5 5 6 6 6 6 6 7 7 7 7 7 7 5 2 1 1 1 0 1 1 2 2 2 2 2 1 1 1 2 2 1 1 2 2 2 2 2 2 2 2 2 3 3 6 9 11 13 14 15 16 17 17 18 18 19 19 19 19 19 19 19 19 18 18 18 18 18 17 15 15 16 17 18
4 4 5 5 5 4 4 4 5 5 5 5 5 6 6 6 6 6 6 7 7 7 7 7 6 4 2 2 4 6 6 4 2 2 2 2 2 1 1 1 1 2 2 2 1 1 2 2 2 2 2 2 2 1 2 3 4 7 9 12 13 14 16 16 17 18 18 18 19 19 19 19 18 18 18 18 18 18 18 18 17 17 16 17 17 18
4 4 4 5 5 5 4 5 5 5 5 5 5 5 5 5 5 5 5 6 5 5 4 4 4 3 2 2 5 7 8 6 5 3 2 1 1 1 1 1 2 2 2 2 2 2 2 2 2 2 2 2 2 2 2 2 3 5 8 11 12 14 15 16 17 17 18 18 19 19 19 19 18 18 18 18 17 17 17 17 17 17 17 17 18 18
4 4 4 4 4 4 5 5 4 4 5 5 5 5 5 5 5 4 5 5 5 5 4 3 3 2 3 2 3 5 7 7 6 5 4 1 0 1 1 1 1 2 2 2 2 2 2 2 2 2 3 3 3 3 2 1 2 4 7 10 12 13 14 16 17 17 18 18 19 19 19 19 19 18 18 17 17 17 17 17 17 17 17 17 18 19
4 4 4 4 4 4 5 4 4 4 5 5 5 6 6 5 5 4 4 4 5 5 5 4 3 3 3 3 4 5 7 6 6 5 4 2 1 1 1 1 2 2 2 3 3 3 3 3 3 3 5 5 4 3 2 1 2 3 6 8 10 12 13 15 16 17 18 18 19 19 19 19 19 18 18 17 17 16 16 16 16 17 17 17 18 19
5 4 4 4 4 5 5 4 4 5 5 6 6 6 6 5 5 4 4 4 4 5 5 5 5 4 3 4 5 5 6 6 5 4 3 2 2 1 1 1 2 2 3 3 3 3 3 3 3 4 6 6 5 4 2 1 2 3 5 8 10 11 13 14 15 16 17 18 19 19 19 19 19 18 18 17 16 16 16 16 16 16 17 17 18 19
6 5 4 4 4 4 4 4 5 6 6 7 7 6 6 5 5 5 4 5 5 5 5 5 5 5 3 5 6 6 5 5 4 3 2 2 1 1 1 0 2 3 3 2 2 3 3 4 3 4 5 6 6 5 3 3 3 4 5 7 9 11 12 13 15 16 17 17 18 19 19 19 19 19 18 18 17 16 16 16 16 16 17 17 18 20
6 5 5 5 5 5 5 5 6 7 7 7 7 6 5 5 5 5 5 5 5 6 6 6 6 6 6 7 7 7 5 4 3 2 2 2 1 1 1 1 1 2 3 3 3 3 4 4 4 4 6 8 8 6 5 4 4 4 5 7 9 11 12 13 14 15 16 17 18 18 19 19 19 19 18 18 17 16 16 15 16 16 16 17 19 20
6 6 6 6 6 5 6 6 6 6 6 6 6 6 4 4 4 5 6 6 6 6 6 7 7 7 7 7 8 7 6 5 4 3 2 2 2 2 2 2 1 1 2 2 3 4 5 5 4 4 7 10 10 9 7 6 5 5 5 6 8 10 12 13 14 14 15 16 17 18 19 19 19 18 18 18 17 17 16 15 15 16 16 17 18 19
6 6 6 6 6 6 5 5 5 5 5 5 6 5 4 4 4 4 5 5 6 6 6 7 7 7 6 7 6 5 5 4 4 3 2 2 2 2 2 2 1 1 1 1 2 3 5 5 4 4 6 10 11 10 9 7 6 5 5 6 8 10 11 12 13 14 14 15 16 17 18 18 18 18 18 18 17 17 16 15 15 15 16 17 18 18
6 6 6 6 7 7 7 7 7 7 6 6 5 4 3 3 4 4 5 5 5 5 6 6 6 6 4 4 4 2 2 2 3 3 2 2 1 2 2 2 2 2 2 1 1 2 3 4 4 4 5 7 9 11 10 8 7 5 5 5 7 9 11 12 12 13 13 14 14 15 17 17 17 17 17 17 17 16 16 15 15 15 16 17 17 16
9 9 9 10 11 12 13 12 11 11 10 9 7 5 3 3 4 4 4 3 4 5 6 5 5 5 3 3 2 3 3 3 3 3 2 2 1 1 1 1 2 2 2 2 2 1 2 3 4 4 4 5 7 9 9 8 7 6 5 5 7 8 10 10 11 12 12 12 13 14 16 16 16 16 16 16 16 16 16 15 15 15 16 15 15 14
14 14 14 15 15 15 14 14 13 13 13 13 11 8 5 4 4 4 3 3 4 4 5 4 4 4 3 3 2 3 3 4 4 5 4 3 2 1 1 1 1 2 2 2 2 2 1 2 3 3 3 4 5 6 8 8 7 6 6 6 6 7 9 9 10 11 12 13 14 15 16 16 17 17 17 16 16 16 16 16 16 15 15 13 12 12
14 14 14 14 14 14 14 13 13 13 13 13 13 11 7 4 3 3 3 3 4 4 4 4 4 3 2 3 3 3 4 3 4 5 5 3 2 1 0 1 1 1 1 1 2 2 2 1 1 2 3 3 4 5 6 6 6 6 6 6 7 7 8 9 10 12 13 14 15 16 17 17 17 17 17 17 17 17 16 16 16 15 14 11 9 10
12 13 13 13 13 13 13 12 12 12 12 13 12 11 7 4 3 3 3 4 4 4 4 4 3 3 3 3 3 3 3 2 4 6 6 4 2 1 1 1 0 1 1 1 1 1 2 2 2 2 1 3 4 5 5 5 4 5 6 6 7 8 9 10 11 12 14 15 16 16 17 17 18 17 17 17 17 16 16 17 16 14 11 10 9 10
10 10 10 11 11 11 10 9 9 10 11 12 11 9 6 4 3 3 3 4 4 4 3 3 3 3 3 3 3 2 1 2 5 6 7 5 3 2 2 1 0 0 0 1 0 0 1 2 2 2 1 2 3 4 5 4 3 3 4 5 6 7 9 11 12 13 14 15 16 16 16 16 16 16 16 16 16 16 17 17 15 12 9 10 10 11
8 8 8 8 8 8 8 7 7 8 9 9 9 7 6 4 4 3 3 4 3 3 3 3 3 3 3 2 2 2 1 2 5 7 7 5 3 2 3 2 1 0 0 1 0 0 1 1 1 2 1 2 3 4 4 4 4 3 3 4 4 6 9 11 12 12 13 14 15 15 15 15 15 15 16 16 17 18 18 18 15 12 10 10 11 11
7 7 7 7 7 6 6 6 6 6 6 6 6 5 5 5 4 4 3 3 3 3 4 3 3 3 3 2 2 2 1 2 4 7 7 4 3 2 3 3 2 1 0 0 0 0 1 1 1 1 1 2 2 3 4 4 4 4 4 3 3 5 8 10 10 10 10 12 13 15 15 16 16 17 18 19 20 20 21 20 17 14 11 11 12 12
7 6 6 6 6 6 6 5 5 5 5 5 5 5 5 5 5 4 4 4 3 3 4 4 4 3 3 3 3 3 3 3 4 6 7 4 3 2 3 3 3 3 1 0 0 0 1 1 0 0 1 2 2 2 3 4 4 4 4 4 4 5 7 8 8 7 7 9 11 13 15 17 18 19 20 21 22 22 22 22 20 17 14 13 13 13
6 6 6 6 6 6 6 6 6 5 5 5 5 5 5 4 4 4 4 4 4 4 4 4 4 4 4 3 3 4 4 3 4 5 6 4 2 2 3 3 3 3 2 1 0 1 1 0 1 1 2 2 1 1 1 3 4 4 4 4 4 4 5 6 6 6 6 7 8 9 12 14 17 20 21 22 22 23 23 23 22 20 18 15 14 14
6 6 6 6 6 6 6 6 6 6 5 5 5 5 5 5 5 5 4 4 4 4 4 4 4 4 4 4 4 4 4 4 4 4 4 3 2 2 2 3 3 3 3 1 0 1 1 1 2 2 3 2 1 1 1 1 3 4 4 5 5 5 5 6 6 7 7 7 8 8 9 10 12 13 16 18 20 22 24 24 23 23 22 19 17 16
6 6 6 5 5 6 6 6 6 6 6 5 5 5 5 5 5 5 5 5 5 5 5 5 5 5 5 5 5 5 6 5 5 5 4 3 2 2 2 2 3 3 3 2 1 0 1 1 2 3 4 3 2 1 1 1 3 4 5 5 5 5 6 6 7 8 8 9 8 8 8 8 8 9 11 17 20 22 24 25 25 25 24 22 20 18
6 6 6 5 6 6 6 6 6 6 6 6 6 6 6 6 6 5 5 5 5 5 5 5 6 6 7 6 6 7 7 6 6 6 5 4 3 3 3 3 3 4 4 3 2 0 1 2 2 3 4 4 3 2 1 2 4 5 5 6 6 6 6 7 8 8 9 10 9 9 8 8 8 9 12 17 20 22 23 24 24 24 24 23 23 21
6 6 6 6 5 5 6 6 6 6 6 6 6 6 7 7 7 6 6 6 6 6 5 5 5 6 8 9 9 9 9 9 9 9 8 6 5 4 4 4 4 5 5 5 3 1 2 2 3 3 3 3 3 4 4 4 5 5 5 6 6 6 6 7 7 8 9 10 10 10 10 9 9 10 11 13 13 14 16 16 18 20 22 22 23 23
6 6 6 6 6 6 6 6 6 6 6 6 7 7 7 7 7 7 6 6 5 5 5 5 5 6 7 9 10 11 11 11 11 11 10 8 7 6 5 5 5 6 6 6 4 2 1 1 2 3 4 4 4 4 4 4 5 6 6 7 7 7 7 6 7 8 9 10 11 11 10 9 9 9 9 9 10 11 12 12 13 15 16 16 18 20
7 7 7 7 7 6 6 6 6 6 6 7 7 7 7 7 6 6 6 5 5 5 5 5 5 5 6 6 7 8 8 8 9 9 9 9 8 7 6 6 6 6 6 5 3 1 1 0 0 2 4 5 5 5 4 5 6 7 9 7 6 5 5 6 6 7 8 10 11 11 10 8 8 8 8 8 9 9 10 10 10 11 13 13 14 15
7 7 7 7 6 6 6 6 6 6 6 6 6 6 6 6 6 6 6 5 5 4 4 4 4 4 4 3 4 4 4 5 5 6 6 7 8 8 6 6 6 6 6 4 2 1 2 2 1 2 4 5 6 6 6 6 7 8 10 8 7 6 6 6 6 6 7 9 10 10 11 10 9 8 8 8 7 7 8 9 9 10 9 10 12 14
8 7 7 6 6 6 6 6 6 7 6 6 5 5 6 6 6 6 6 6 5 5 5 5 4 4 4 3 3 4 4 4 4 4 4 4 6 7 7 6 6 5 5 3 1 2 3 3 2 1 3 5 6 6 6 6 6 7 8 9 10 10 8 7 6 6 8 9 10 11 12 10 9 8 8 8 7 7 7 8 9 10 9 7 8 10
7 7 7 7 6 6 7 7 7 6 6 5 5 5 5 6 6 6 6 6 6 6 6 5 5 4 4 5 5 5 5 5 6 6 6 2 2 4 6 7 7 6 5 2 0 3 4 4 3 2 1 4 6 8 7 6 6 7 8 10 11 11 7 5 4 5 7 8 9 9 10 9 9 8 8 8 7 6 6 8 9 10 9 8 8 8
7 7 7 7 6 6 6 6 6 6 6 6 6 6 6 6 6 6 5 5 5 6 5 5 4 4 4 5 6 6 6 6 6 7 8 8 6 3 1 2 3 3 3 1 2 3 4 4 4 3 1 2 5 8 9 8 7 7 6 8 10 10 9 7 6 7 7 8 8 8 9 9 9 9 9 8 7 6 6 6 7 7 8 7 7 8
7 7 7 7 7 7 7 7 7 6 6 6 6 6 6 6 6 6 5 5 5 6 6 5 4 4 4 5 6 6 6 6 6 6 7 9 10 10 7 5 3 2 2 3 4 4 4 4 3 3 3 1 4 7 9 9 9 8 7 7 9 9 9 8 7 8 8 8 8 8 9 9 10 10 10 9 8 7 6 7 7 8 7 7 7 8
7 7 7 7 7 7 8 8 7 7 7 7 7 7 7 7 6 6 6 6 6 6 6 6 5 4 4 5 5 6 6 6 6 6 6 7 8 8 8 6 6 5 5 6 7 7 7 6 4 3 3 2 3 6 8 9 9 9 7 9 9 10 9 8 7 7 8 8 8 8 9 10 11 11 11 10 9 8 7 7 8 8 7 7 8 8
8 8 8 8 8 8 8 8 8 7 7 7 7 7 7 7 7 6 6 6 6 6 6 6 6 6 6 6 5 5 6 6 6 6 6 6 6 6 6 6 6 7 7 8 9 10 10 9 8 6 4 2 3 4 6 7 8 9 9 9 10 10 10 8 7 7 7 8 8 8 9 10 11 12 12 11 10 8 7 7 7 7 7 7 8 9
8 8 8 8 8 8 8 8 8 8 8 8 8 7 7 8 8 8 7 7 7 6 6 6 6 6 6 6 6 6 6 6 6 6 6 6 5 5 5 4 5 6 8 10 11 12 12 13 12 10 7 3 2 4 5 6 7 8 8 9 10 10 10 9 8 7 7 7 8 9 8 9 11 12 13 12 11 9 7 7 7 6 6 6 8 9
8 8 8 8 8 8 8 8 8 9 8 8 8 8 8 8 9 9 7 7 7 6 6 7 7 6 6 6 6 6 7 6 6 5 6 5 5 4 4 3 3 4 6 8 10 10 11 13 14 13 10 7 4 3 5 5 6 7 7 7 9 10 11 9 8 7 6 6 7 7 6 7 9 11 14 14 13 11 9 8 7 6 6 6 7 8
8 8 9 8 8 8 9 9 9 9 9 9 9 8 8 8 8 8 7 7 7 6 6 7 7 6 6 6 6 7 7 6 6 6 5 5 5 4 4 3 2 2 4 5 6 6 7 8 10 12 14 13 9 5 3 5 6 7 7 7 7 9 10 10 8 7 6 6 7 6 7 6 7 9 12 14 15 13 11 9 8 6 5 5 6 8
9 9 9 8 8 8 8 8 9 9 9 9 9 8 8 8 8 8 7 7 7 7 6 6 6 6 7 7 7 7 7 6 6 6 6 5 5 5 4 3 2 0 3 4 4 4 4 4 5 7 11 14 15 11 3 3 6 7 7 6 7 7 9 9 8 8 7 7 7 7 7 7 7 7 10 13 14 14 12 10 9 7 6 6 8 10
Wind_Direction
303 306 309 311 311 310 308 310 308 306 304 303 302 301 301 301 300 297 295 293 288 284 288 296 300 300 297 299 302 305 307 309 312 319 333 350 4 13 14 2 350 339 329 322 316 305 264 197 178 170 166 169 175 182 189 194 196 196 195 193 192 191 192 194 198 201 203 203 204 204 205 206 207 207 208 209 207 204 199 193 186 179 176 178 180 183
307 309 310 314 314 312 308 310 309 307 305 303 301 300 300 301 300 297 293 287 283 283 292 299 299 296 294 293 296 298 300 302 306 314 330 349 3 11 13 3 351 340 331 324 317 306 277 211 186 176 169 166 167 172 179 187 193 196 196 194 192 190 187 188 190 193 197 198 200 202 203 205 206 207 208 210 209 206 202 197 190 184 181 182 183 183
314 314 314 316 316 313 309 310 309 306 303 300 298 297 297 297 296 294 291 287 288 294 303 299 295 292 290 289 289 291 292 294 299 308 325 346 2 11 12 2 350 340 333 327 318 305 281 227 194 182 174 168 165 166 171 180 186 191 193 193 191 188 185 182 182 184 188 190 194 197 200 203 205 206 207 209 210 208 204 199 193 188 187 188 187 186
317 316 316 316 314 311 307 308 308 306 303 300 296 293 292 292 291 290 290 292 295 297 296 291 287 284 284 284 284 284 285 287 292 302 319 341 359 9 12 1 349 339 334 328 319 304 279 233 196 185 180 175 170 168 168 174 180 185 188 189 188 186 184 181 179 178 178 181 185 189 195 199 202 204 205 207 208 209 207 202 195 190 190 192 192 190
317 316 315 314 310 308 308 309 311 311 311 306 300 295 291 287 286 286 288 288 287 286 284 282 279 277 276 277 278 279 279 281 286 296 314 337 355 6 10 359 347 337 333 328 319 300 265 226 194 183 180 179 176 173 169 171 175 179 183 184 184 184 183 181 178 176 174 175 177 181 188 194 198 201 202 204 206 208 209 204 197 192 191 193 195 194
315 314 313 311 309 309 311 314 319 324 324 319 312 303 294 288 286 286 287 287 285 281 276 273 270 269 269 270 274 275 275 276 279 288 309 331 351 2 6 357 345 335 331 326 317 294 245 215 192 180 176 176 177 176 171 169 171 174 177 181 182 183 183 181 179 177 176 175 176 178 183 188 192 196 199 201 203 206 206 203 198 193 190 191 193 194
313 313 312 310 309 309 310 317 328 335 334 327 321 316 311 307 304 304 305 303 296 286 274 265 260 258 259 262 268 273 273 271 272 280 303 325 344 357 3 356 344 334 329 324 314 284 224 203 188 179 173 172 173 174 173 169 169 170 173 177 181 184 185 184 183 181 179 178 178 179 182 185 189 192 194 197 199 201 202 200 197 192 188 188 189 191
314 314 313 312 312 311 311 319 333 338 334 326 323 324 332 334 331 326 322 318 313 306 296 281 262 248 245 253 263 270 272 265 260 264 292 318 338 351 359 355 342 331 326 320 308 267 207 194 185 178 172 170 170 171 172 170 168 168 170 175 179 183 185 186 185 184 182 181 180 181 182 185 188 190 192 193 194 194 195 195 194 191 188 185 185 187
315 315 315 316 316 316 316 326 335 337 332 324 323 328 340 339 334 329 325 323 323 323 322 318 304 274 241 246 257 268 273 262 246 230 266 310 331 346 358 357 341 328 321 314 299 251 201 191 184 178 171 168 167 169 171 170 169 169 170 174 178 182 184 185 185 185 183 182 181 181 182 185 188 191 192 191 189 187 186 186 187 187 186 183 183 185
315 315 315 317 318 319 322 328 332 332 328 321 320 327 340 339 335 331 329 327 328 330 330 326 319 306 274 249 249 261 273 264 239 203 195 280 314 325 344 352 335 320 313 306 288 243 200 189 181 174 166 163 164 166 170 170 170 169 170 173 177 180 183 183 183 182 181 181 181 181 182 185 188 190 191 191 189 184 179 178 179 181 181 180 182 185
318 317 316 316 318 321 326 327 327 327 327 323 324 330 344 346 341 335 331 329 329 328 326 319 313 305 293 262 244 247 267 265 235 196 179 228 286 300 307 309 309 306 306 296 273 231 197 186 174 164 155 151 151 157 164 168 168 168 169 173 176 179 182 181 181 180 179 179 180 181 182 184 187 189 190 190 188 183 177 173 172 174 176 178 182 185
320 319 317 316 319 322 328 327 325 326 331 334 337 341 347 350 345 335 328 325 324 322 318 312 303 292 286 271 244 226 242 249 235 209 197 220 255 274 284 278 285 305 311 286 250 217 196 183 168 155 145 136 133 137 149 161 164 166 167 171 175 178 181 181 180 179 178 178 179 180 182 184 185 186 187 187 185 182 177 172 169 169 173 176 181 184
322 320 316 315 319 324 330 329 330 334 343 347 347 345 341 341 338 331 324 320 318 315 311 307 299 289 279 264 239 207 211 225 229 228 221 222 232 244 251 210 133 111 82 237 233 220 207 186 165 147 136 123 113 110 119 146 159 164 167 170 173 176 179 180 179 178 177 177 178 180 182 184 184 184 185 185 184 183 181 176 172 170 171 176 179 181
323 321 316 317 321 326 332 331 333 337 345 348 344 337 330 330 331 330 325 321 318 314 309 305 301 295 279 251 218 190 193 209 226 236 236 225 219 216 212 176 123 109 107 146 205 218 214 206 189 159 126 117 103 91 90 129 153 163 168 171 173 175 178 179 178 177 176 175 176 178 180 181 182 183 183 184 184 184 185 184 180 175 174 177 179 180
323 321 318 320 323 328 333 331 331 334 338 339 335 329 323 326 330 331 328 325 321 318 315 311 307 299 277 243 100 75 342 245 238 238 238 226 212 202 198 168 125 109 106 130 178 208 210 216 205 174 136 130 119 100 78 118 152 165 169 172 174 175 176 177 176 175 174 173 173 173 174 176 177 179 180 181 182 183 185 186 184 180 177 178 179 180
321 319 317 319 322 326 330 327 326 326 329 332 331 328 324 327 331 332 329 326 323 321 320 321 318 309 268 79 55 35 11 355 323 265 238 218 200 187 196 155 123 112 108 120 149 192 207 211 200 170 143 132 121 102 87 103 145 164 171 175 177 177 176 176 175 173 172 171 170 169 169 170 172 173 175 176 177 178 181 182 182 181 179 178 178 179
318 317 316 317 320 323 326 321 319 320 325 328 329 326 322 323 325 327 326 325 322 321 323 326 324 321 308 46 47 37 17 359 338 312 274 222 175 175 207 147 119 114 115 124 144 173 197 197 184 152 125 111 103 97 90 110 149 165 173 178 179 179 178 176 175 173 171 170 168 167 166 166 167 168 170 170 171 173 175 177 178 178 177 177 177 178
316 316 315 315 318 320 321 317 315 318 323 327 326 322 316 315 317 322 325 323 322 321 320 321 322 321 315 341 15 24 16 358 339 321 311 310 256 197 220 140 113 114 122 135 152 173 193 190 174 146 114 99 93 92 90 106 155 169 176 181 182 182 181 178 176 173 172 170 168 167 166 165 165 166 166 166 167 169 171 173 174 175 175 175 176 178
315 314 314 316 318 318 316 313 314 319 326 329 325 319 311 312 316 322 325 323 319 316 314 312 309 305 304 310 335 355 3 349 333 318 308 305 296 246 225 157 124 119 130 145 156 168 180 178 157 129 110 105 103 101 98 123 166 176 181 184 185 185 184 180 177 175 173 171 169 167 166 165 165 165 165 165 166 168 170 172 173 173 173 174 175 177
313 312 315 319 319 315 310 310 314 320 325 324 319 312 306 310 316 322 325 320 314 310 306 302 300 299 299 304 315 329 343 335 326 311 296 295 293 280 251 172 134 126 135 148 157 166 174 176 157 131 112 113 114 117 125 159 185 188 187 188 188 188 186 183 179 176 174 172 170 168 166 165 165 165 165 165 166 168 171 172 172 172 172 173 174 175
310 311 317 320 316 310 306 308 312 316 319 318 311 304 301 308 317 322 323 317 311 306 301 297 297 299 305 304 304 306 315 315 311 300 294 292 295 299 304 197 140 133 133 144 155 164 171 179 174 152 122 122 126 135 150 175 194 198 193 191 191 190 188 185 181 178 176 174 171 169 167 166 165 164 164 165 166 168 171 172 172 172 171 172 172 172
308 310 315 314 309 303 300 302 307 310 314 311 305 299 302 315 322 323 319 314 309 304 300 296 296 297 296 290 286 283 281 277 275 278 289 292 301 325 348 334 120 128 135 147 158 165 169 176 175 155 129 130 136 148 162 176 193 202 198 194 193 191 190 187 183 180 178 176 173 170 167 166 165 164 164 164 166 168 170 171 171 171 170 170 169 169
306 308 309 308 304 300 297 299 303 308 311 306 300 298 309 323 325 320 314 309 304 300 297 295 292 288 281 274 271 266 256 243 241 253 277 284 306 339 348 342 35 106 132 150 163 167 165 169 169 153 133 139 145 154 163 174 188 199 201 196 194 193 191 188 184 181 179 177 174 171 168 166 164 163 162 163 164 167 169 171 171 171 169 168 167 166
308 307 306 305 304 301 300 304 310 313 313 304 300 303 321 327 321 309 301 299 297 296 296 295 293 289 281 273 268 260 243 223 219 231 260 280 307 334 343 342 6 50 91 148 175 173 164 161 161 153 136 144 150 156 162 170 182 195 202 198 196 194 193 188 183 180 179 177 174 170 165 163 162 161 161 161 163 165 168 170 171 170 169 166 165 163
316 313 312 313 315 317 320 325 326 325 321 311 309 314 337 330 313 299 291 293 297 301 301 300 299 299 297 290 286 283 269 211 213 228 259 278 306 329 337 338 1 23 21 339 258 199 169 156 152 149 140 143 149 155 159 165 174 186 200 199 197 196 193 188 181 177 176 173 169 165 160 158 157 157 158 160 162 164 167 169 170 169 166 163 160 157
329 327 326 327 328 330 333 334 332 330 326 321 322 331 352 335 316 302 294 305 312 313 308 305 305 307 308 307 310 325 348 347 340 331 313 299 301 318 329 341 7 19 7 338 311 259 179 155 151 148 143 139 144 150 155 160 168 182 197 199 198 196 193 186 177 171 167 164 161 157 153 152 152 154 155 157 161 164 167 168 168 165 160 156 152 149
335 333 333 334 335 336 338 338 336 332 329 327 332 343 358 343 324 313 312 325 323 318 310 311 313 314 313 314 317 324 330 344 354 353 333 311 298 304 337 359 20 22 7 339 320 304 213 154 147 145 140 130 130 138 149 156 166 181 199 200 197 192 188 180 170 161 157 154 152 151 149 149 150 152 154 158 161 164 166 166 162 157 150 146 144 141
338 337 338 339 339 340 341 340 337 334 331 333 340 348 358 347 330 321 324 328 322 314 309 315 319 322 321 318 313 309 304 336 357 353 330 310 298 308 347 359 23 27 8 331 320 324 345 28 91 120 127 121 119 124 135 147 164 184 198 198 192 186 182 174 165 156 151 149 149 149 149 150 151 154 156 159 162 164 163 160 155 148 140 135 131 129
337 338 338 339 340 340 341 339 336 334 333 337 343 350 355 345 329 320 321 321 315 309 308 315 320 322 318 308 301 292 281 6 12 359 337 321 313 325 341 332 15 42 9 308 316 340 4 5 4 13 81 110 112 112 117 129 155 186 202 193 185 179 177 173 165 157 151 149 149 149 150 151 152 155 157 159 161 160 157 152 147 143 134 130 128 128
336 337 337 338 339 339 338 335 333 333 334 338 342 346 346 336 323 315 313 311 309 306 307 311 316 318 317 308 297 285 258 49 26 7 349 338 333 337 338 328 319 131 210 279 303 24 35 7 353 347 360 108 114 114 115 124 147 184 205 190 179 174 174 172 167 160 153 151 150 150 150 150 152 153 155 155 154 152 147 142 139 136 130 128 127 128
335 335 335 335 335 334 333 332 332 332 332 335 337 338 335 327 318 311 307 305 303 303 303 304 307 311 313 311 305 303 341 35 22 11 0 347 336 332 334 328 328 354 173 273 290 71 91 45 351 334 345 107 119 124 127 136 153 175 190 183 176 171 170 169 167 161 155 150 148 148 148 147 147 147 147 146 143 140 137 133 131 129 127 126 126 127
334 334 334 333 332 331 331 331 331 330 330 331 331 329 325 321 316 310 306 303 299 297 296 295 296 298 298 293 292 297 317 350 4 5 2 349 333 322 327 326 325 323 264 288 313 359 91 88 22 343 33 89 107 121 136 146 158 169 174 169 165 162 163 163 163 159 151 146 143 142 140 139 138 138 138 137 135 133 130 128 127 127 126 124 123 123
333 334 334 333 332 331 331 331 329 329 328 327 326 324 322 318 314 310 304 298 294 290 289 289 290 289 287 279 274 274 282 305 337 350 356 349 334 318 323 321 319 316 309 287 70 36 66 91 98 79 73 74 78 98 131 149 160 166 164 156 151 151 153 154 153 149 143 138 134 132 132 132 132 132 132 131 130 128 127 126 125 125 126 124 123 121
334 335 336 335 333 332 331 331 330 329 327 326 324 322 320 316 312 308 301 294 287 282 279 280 282 284 285 280 275 272 274 284 311 335 349 345 331 312 314 308 306 306 309 299 133 118 95 132 158 143 109 76 56 60 104 148 156 156 151 142 139 138 140 139 135 130 125 122 121 121 123 125 126 127 128 128 127 126 124 124 123 123 124 124 124 124
336 338 340 338 336 334 333 332 332 330 328 326 324 321 318 315 311 305 300 293 284 276 269 268 269 271 273 275 276 277 277 281 298 317 329 324 315 303 302 295 301 307 311 305 200 136 126 187 179 155 126 104 66 28 14 129 139 136 128 123 120 122 125 124 122 118 115 111 108 108 111 115 119 122 124 124 123 122 121 121 120 121 121 122 123 124
339 341 343 341 339 337 335 334 332 331 329 326 323 320 317 314 309 304 299 292 285 277 269 262 259 257 257 260 264 269 273 278 285 292 294 288 285 284 285 290 303 311 312 308 302 147 136 174 172 154 132 121 103 52 2 81 107 110 107 104 103 105 110 115 117 117 114 109 105 102 101 102 105 109 113 116 116 116 116 116 116 117 117 119 120 120
342 344 345 344 342 339 335 334 332 331 329 325 321 319 316 313 309 305 299 292 286 280 273 266 259 253 249 250 253 258 265 272 275 274 269 263 258 256 259 274 286 291 292 295 296 267 143 163 166 157 137 127 124 125 126 111 103 100 97 95 96 98 101 106 111 113 112 109 105 101 98 99 100 103 106 110 110 109 109 110 111 111 112 113 114 116
346 346 346 346 343 339 335 333 331 329 326 323 320 317 315 313 310 306 301 294 287 281 275 269 262 257 252 252 252 253 257 261 263 262 256 249 243 241 245 259 267 270 272 278 279 263 160 172 169 159 138 123 121 126 133 123 112 103 97 92 89 89 92 98 103 107 109 107 104 102 100 101 103 106 108 109 108 106 106 105 105 106 107 107 108 109
348 347 346 346 344 340 336 333 330 326 322 319 317 316 316 314 311 308 303 297 290 285 280 277 271 263 256 253 251 251 252 253 254 253 249 241 234 231 236 247 256 261 265 269 269 258 160 187 180 161 138 126 122 121 119 116 115 112 109 97 86 81 82 90 98 104 109 109 107 104 101 102 104 106 109 111 112 112 111 110 110 110 109 106 105 104
347 346 344 344 342 339 334 330 326 322 319 316 316 317 319 319 317 314 309 306 303 300 296 290 281 269 260 255 252 250 250 249 249 248 244 235 228 223 225 235 247 258 267 270 272 276 77 29 182 155 141 135 132 129 121 121 125 126 123 112 99 88 83 85 92 99 106 108 108 107 106 104 103 103 106 108 111 113 115 116 116 117 118 118 115 112
344 343 342 340 337 334 331 327 324 322 319 318 320 324 328 328 326 325 324 323 323 321 319 313 305 293 284 276 274 273 270 268 265 260 248 233 223 218 218 226 239 253 265 271 283 37 70 51 74 141 141 133 127 122 120 125 130 130 123 117 112 105 93 85 87 94 100 103 106 108 109 106 102 98 96 95 96 100 107 113 116 117 118 122 125 126
342 341 339 336 333 332 330 328 327 325 324 325 328 333 335 333 331 331 331 333 335 337 339 338 335 334 336 341 340 336 335 331 325 315 287 236 217 211 213 219 230 244 258 264 301 64 65 55 62 123 147 136 128 122 118 118 117 116 113 113 112 106 91 83 86 97 103 105 106 107 108 106 102 97 94 91 89 87 89 99 106 110 113 116 120 125
340 338 335 333 331 330 330 332 334 334 334 335 338 341 341 336 334 334 335 337 340 344 346 344 344 348 355 357 354 350 347 349 351 352 351 341 218 205 212 219 226 235 244 246 99 73 66 52 42 43 148 137 130 125 120 115 109 108 113 122 122 118 109 104 102 103 103 105 105 105 105 103 99 95 90 86 82 79 76 81 87 93 99 109 112 113
337 335 334 334 333 335 338 342 343 342 341 344 345 346 344 340 338 339 341 341 344 349 351 348 349 358 12 7 358 350 345 349 355 0 4 9 13 13 323 245 235 233 235 208 116 91 79 58 37 12 330 135 129 124 120 119 118 118 123 124 121 118 118 122 121 114 104 101 100 100 102 103 101 95 86 79 72 67 64 67 69 72 77 86 94 99
338 338 339 339 340 342 347 348 346 345 346 348 349 349 346 344 344 347 349 348 350 355 358 357 359 8 18 10 1 352 347 349 354 360 4 9 13 15 16 16 23 41 60 70 76 80 83 70 45 14 344 91 124 125 125 125 123 121 117 109 102 99 98 104 109 111 110 106 104 104 109 111 108 102 93 83 75 68 65 68 71 73 75 80 87 95
345 346 345 344 345 347 349 348 348 347 349 351 353 352 349 348 350 354 356 356 357 1 3 8 15 23 23 11 2 355 352 352 354 357 2 6 10 14 18 24 35 51 64 64 63 62 65 62 49 26 6 68 111 120 124 125 123 119 113 108 104 101 97 94 97 103 109 111 113 116 121 117 111 104 99 92 83 74 67 69 73 79 84 89 93 97
350 350 349 347 346 347 348 348 349 350 352 354 354 354 353 352 355 359 1 2 3 6 8 13 21 28 27 17 8 1 356 353 351 353 356 2 7 12 17 27 42 56 69 70 67 63 59 54 43 29 12 58 108 116 115 117 118 119 120 118 114 110 106 102 100 101 105 111 118 124 127 119 112 107 105 99 92 81 70 67 69 75 83 93 98 100
352 352 351 348 348 348 349 350 351 352 353 353 353 353 354 356 360 3 4 5 7 10 13 16 20 24 25 19 12 5 359 354 350 349 351 354 359 4 10 25 47 64 73 75 74 70 64 56 46 33 11 13 76 115 115 111 113 116 121 120 117 113 110 107 105 105 105 112 120 127 130 124 121 118 114 106 99 90 81 73 68 68 76 91 101 105
354 354 353 351 351 352 351 351 352 353 353 354 354 353 354 357 2 6 6 7 10 13 17 18 19 20 21 16 10 5 2 356 352 350 350 349 348 350 354 13 48 75 82 80 77 73 67 58 50 39 23 15 25 80 109 110 110 110 111 113 114 114 113 110 109 108 109 113 117 120 122 122 124 124 120 113 107 101 93 85 77 73 74 85 96 104
357 358 356 354 354 354 353 353 354 354 353 354 354 354 353 357 2 6 8 9 12 16 19 19 19 19 19 14 9 5 3 359 354 352 352 346 341 339 338 344 23 86 94 89 83 77 69 60 49 38 27 19 16 24 90 111 112 109 106 108 112 114 115 113 112 110 110 112 113 114 114 115 117 118 116 114 111 107 101 94 87 82 81 86 92 98
358 360 360 357 356 355 354 355 356 356 355 355 355 355 356 358 1 5 9 11 13 15 17 19 21 21 19 15 10 6 4 360 356 352 348 342 335 330 327 323 319 109 114 105 99 92 83 74 56 36 21 14 10 9 27 104 116 115 111 111 112 113 114 113 111 110 108 110 112 115 116 117 118 119 119 117 114 111 107 103 100 98 96 97 98 99